User: anonymous   Login
Location: Unspecified
(0.0000°N, 0.0000°E)
Time: 09:16:31
(UTC+00:00)
Language:

Cosmos 2499 - Orbit

View from above orbital plane
View from above orbital plane
View from above satellite
View from above satellite

Ground track
Ground track

The orbit data is extracted from the following two-line orbital elements,

1 39765U 14028E   17289.77630836 -.00000078 +00000-0 -33082-3 0  9998
2 39765 082.4407 229.7944 0228446 233.3731 124.6171 12.83340579159337
Epoch (UTC): 16 October 2017 18:37:53
Eccentricity: 0.0228446
inclination: 82.4407°
perigee height: 1152 km
apogee height: 1504 km
right ascension of ascending node: 229.7944°
argument of perigee: 233.3731°
revolutions per day: 12.83340579
mean anomaly at epoch: 124.6171°
orbit number at epoch: 15933

The dashed part of the orbit path shows where the satellite is in the earth's shadow,  

DLR